This demonstration page uses our WeatherBlox Daily Observations layout. Learn more.

Left ArrowRight Arrow

39.92423, -83.80882

Hourly Observations for February 28, 2019

Temp ( °F °C ) Dew Point ( °F °C ) Humidity (%) Winds ( mph kmh ) Pressure ( in mb ) Visibility ( mi km ) Precip ( " mm )
12:56 am 00:56 Cloudy 31 -0.6 26 -3.3 82 82 NNW 9 15 30.16 1021 10 16 0.00 0.00
1:56 am 01:56 Cloudy 30 -1.1 25 -3.9 82 82 N 9 15 30.17 1022 10 16 0.00 0.00
2:56 am 02:56 Cloudy 29 -1.7 24 -4.4 82 82 N 7 11 30.17 1022 10 16 0.00 0.00
3:56 am 03:56 Cloudy 29 -1.7 24 -4.4 82 82 NE 5 7 30.17 1022 10 16 0.00 0.00
4:56 am 04:56 Cloudy 29 -1.7 24 -4.4 82 82 ENE 7 11 30.19 1022 10 16 0.00 0.00
5:56 am 05:56 Cloudy 28 -2.2 24 -4.4 85 85 ENE 8 13 30.21 1023 10 16 0.00 0.00
7:56 am 07:56 Cloudy 27 -2.8 21 -6.1 78 78 ENE 12 19 30.22 1024 10 16 0.00 0.00
8:56 am 08:56 Cloudy 27 -2.8 20 -6.7 75 75 ENE 10 17 30.24 1024 10 16 0.00 0.00
9:56 am 09:56 Cloudy 29 -1.7 21 -6.1 72 72 ENE 13 20 30.24 1024 10 16 0.00 0.00
10:56 am 10:56 Mostly Cloudy 29 -1.7 19 -7.2 66 66 ENE 10 17 30.24 1024 10 16 0.00 0.00
11:13 am 11:13 Mostly Sunny 30 -1 19 -7 64 64 E 12 19 30.25 1024 10 16 0.00 0.00
11:39 am 11:39 Mostly Cloudy 32 0 19 -7 60 60 E 10 17 30.23 1024 10 16 0.00 0.00
11:54 am 11:54 Partly Cloudy 32 0 19 -7 60 60 ENE 8 13 30.23 1024 10 16 0.00 0.00
11:56 am 11:56 Mostly Cloudy 32 0 19 -7.2 59 59 ENE 8 13 30.22 1023 10 16 0.00 0.00
12:56 pm 12:56 Partly Cloudy 34 1.1 19 -7.2 54 54 E 9 15 30.19 1022 10 16 0.00 0.00
1:56 pm 13:56 Cloudy 33 0.6 18 -7.8 54 54 E 12 19 30.16 1022 10 16 0.00 0.00
2:56 pm 14:56 Cloudy 34 1.1 18 -7.8 52 52 E 12 19 30.14 1021 10 16 0.00 0.00
3:56 pm 15:56 Cloudy 33 0.6 17 -8.3 52 52 N 7 11 30.15 1021 10 16 0.00 0.00
4:56 pm 16:56 Cloudy 33 0.6 17 -8.3 52 52 NE 8 13 30.16 1021 10 16 0.00 0.00
5:56 pm 17:56 Cloudy 32 0 17 -8.3 54 54 NE 10 17 30.14 1021 10 16 0.00 0.00
6:56 pm 18:56 Cloudy with Light Snow 30 -1.1 22 -5.6 72 72 NNE 13 20 30.15 1021 7 11 0.00 0.03
7:37 pm 19:37 Cloudy with Light Snow 28 -2 25 -4 86 86 NE 9 15 30.18 1022 3 4 0.00 0.03
7:43 pm 19:43 Cloudy with Light Snow 28 -2 27 -3 93 93 NE 9 15 30.18 1022 2 3 0.00 0.03
7:54 pm 19:54 Cloudy with Light Snow 28 -2 27 -3 93 93 ENE 8 13 30.17 1022 2 3 0.00 0.03
7:56 pm 19:56 Cloudy with Light Snow 28 -2.2 26 -3.3 92 92 ENE 8 13 30.15 1021 2 3 0.00 0.03
8:10 pm 20:10 Cloudy with Light Snow 28 -2 27 -3 93 93 ENE 8 13 30.17 1022 2 2 0.00 0.03
8:36 pm 20:36 Cloudy with Light Snow 27 -3 27 -3 100 100 E 5 7 30.19 1022 2 3 0.00 0.03
8:51 pm 20:51 Cloudy with Light Snow 27 -3 27 -3 100 100 E 7 11 30.19 1022 2 2 0.00 0.03
8:56 pm 20:56 Cloudy with Light Snow 27 -2.8 27 -2.8 100 100 E 7 11 30.16 1021 1 2 0.00 0.03
8:59 pm 20:59 Cloudy with Light Snow 27 -3 27 -3 100 100 E 7 11 30.18 1022 1 1 0.00 0.03
9:02 pm 21:02 Cloudy with Light Snow 27 -3 27 -3 100 100 E 6 9 30.18 1022 1 1 0.00 0.03
9:09 pm 21:09 Cloudy with Snow 27 -3 27 -3 100 100 E 8 13 30.18 1022 1 1 0.00 0.03
9:11 pm 21:11 Cloudy with Light Snow 27 -3 27 -3 100 100 E 8 13 30.18 1022 1 1 0.00 0.03
9:25 pm 21:25 Cloudy with Light Snow 27 -3 27 -3 100 100 ENE 7 11 30.17 1022 1 2 0.00 0.03
9:40 pm 21:40 Cloudy with Light Snow 27 -3 27 -3 100 100 ENE 7 11 30.17 1022 3 5 0.00 0.03
9:45 pm 21:45 Cloudy with Light Snow 27 -3 27 -3 100 100 ENE 6 9 30.17 1022 4 6 0.00 0.03
9:56 pm 21:56 Cloudy with Light Snow 27 -2.8 27 -2.8 100 100 NE 8 13 30.14 1021 5 8 0.00 0.03
10:44 pm 22:44 Cloudy with Light Snow 27 -3 27 -3 100 100 NE 8 13 30.18 1022 9 14 0.00 0.03
10:56 pm 22:56 Cloudy with Light Snow 28 -2.2 26 -3.3 92 92 NE 8 13 30.15 1021 9 14 0.00 0.03
11:22 pm 23:22 Cloudy with Light Snow 28 -2 27 -3 93 93 ENE 9 15 30.16 1021 9 14 0.00 0.03
11:56 pm 23:56 Cloudy with Light Snow 27 -2.8 26 -3.3 96 96 NE 9 15 30.14 1021 7 11 0.00 0.03

Powered by AerisWeather